Tracking 18823 objects as of 23-October-2017
HD Live streaming from Space Station
objects crossing your sky now

EUTELSAT 2-F4

Track EUTELSAT 2-F4 now!
EUTELSAT 2-F4 is classified as:


NORAD ID: 22028
Int'l Code: 1992-041B
Perigee: 36,085.2 km
Apogee: 36,177.2 km
Inclination: 13.0 °
Period: 1,453.4 minutes
Semi major axis: 42502 km
RCS: 3.1622 m2 (large)
Launch date: July 9, 1992
Source: European Telecommunications Satellite Organization (EUTE)
Launch site: FRENCH GUIANA (FRGUI)
aabbcc
Your satellite tracking list
Your tracking list is empty





NASA's NSSDC Master Catalog

Two Line Element Set (TLE):
1 22028U 92041B   17294.97383819 -.00000136  00000-0  00000+0 0  9991
2 22028  12.9755  30.4281 0010814 201.8057 159.4359  0.99079999 84920
Source of the keplerian elements: AFSPC